TimeEST,TemperatureF,Dew PointF,Humidity,Sea Level PressureIn,VisibilityMPH,Wind Direction,Wind SpeedMPH,Gust SpeedMPH,PrecipitationIn,Events,Conditions,WindDirDegrees,DateUTC
12:53 AM,53.1,37.9,57,30.20,10.0,North,9.2,-,N/A,,Clear,350,2013-11-11 05:53:00
1:53 AM,52.0,34.0,50,30.22,10.0,NNE,13.8,-,N/A,,Clear,20,2013-11-11 06:53:00
2:53 AM,50.0,33.1,52,30.24,10.0,NNE,13.8,-,N/A,,Clear,20,2013-11-11 07:53:00
3:53 AM,48.0,33.1,56,30.24,10.0,NNE,11.5,-,N/A,,Clear,30,2013-11-11 08:53:00
4:53 AM,46.0,33.1,61,30.26,10.0,NNE,6.9,-,N/A,,Clear,30,2013-11-11 09:53:00
5:53 AM,43.0,32.0,65,30.28,10.0,NNE,6.9,-,N/A,,Clear,30,2013-11-11 10:53:00
6:53 AM,42.1,32.0,67,30.30,10.0,NNE,6.9,-,N/A,,Clear,20,2013-11-11 11:53:00
7:53 AM,48.0,30.9,52,30.31,10.0,NNE,11.5,-,N/A,,Clear,30,2013-11-11 12:53:00
8:53 AM,51.1,30.9,46,30.33,10.0,NNE,16.1,-,N/A,,Clear,30,2013-11-11 13:53:00
9:53 AM,55.0,32.0,42,30.32,10.0,NE,13.8,-,N/A,,Clear,40,2013-11-11 14:53:00
10:53 AM,57.9,33.1,39,30.31,10.0,NNE,10.4,-,N/A,,Clear,30,2013-11-11 15:53:00
11:53 AM,60.1,35.1,39,30.29,10.0,ENE,5.8,-,N/A,,Clear,70,2013-11-11 16:53:00
12:53 PM,62.1,37.0,39,30.26,10.0,Variable,3.5,-,N/A,,Clear,0,2013-11-11 17:53:00
1:53 PM,62.1,37.0,39,30.24,10.0,East,4.6,-,N/A,,Clear,80,2013-11-11 18:53:00
2:53 PM,62.1,37.9,41,30.22,10.0,East,5.8,-,N/A,,Clear,100,2013-11-11 19:53:00
3:53 PM,61.0,37.9,42,30.22,10.0,SE,4.6,-,N/A,,Clear,130,2013-11-11 20:53:00
4:53 PM,57.0,39.9,53,30.22,10.0,ESE,4.6,-,N/A,,Clear,110,2013-11-11 21:53:00
5:53 PM,51.1,42.1,71,30.22,10.0,Calm,Calm,-,N/A,,Clear,0,2013-11-11 22:53:00
6:53 PM,48.9,42.1,77,30.22,10.0,Calm,Calm,-,N/A,,Clear,0,2013-11-11 23:53:00
7:53 PM,46.9,41.0,80,30.20,10.0,Calm,Calm,-,N/A,,Clear,0,2013-11-12 00:53:00
8:53 PM,46.0,41.0,83,30.20,10.0,Calm,Calm,-,N/A,,Clear,0,2013-11-12 01:53:00
9:53 PM,45.0,39.9,82,30.19,10.0,Calm,Calm,-,N/A,,Clear,0,2013-11-12 02:53:00
10:53 PM,43.0,39.0,86,30.18,10.0,Calm,Calm,-,N/A,,Clear,0,2013-11-12 03:53:00
11:53 PM,41.0,37.0,86,30.17,9.0,Calm,Calm,-,N/A,,Clear,0,2013-11-12 04:53:00